Temperature
5 5 5 5 6 7 7 8 8 9 10 11 10 10 11 11 11 11 12 13 14 15 16 16 16 16 16 16 16 16 16 16 15 15 15 15 14 14 14 14 14 14 14 14
5 5 6 6 7 7 7 7 8 9 10 10 10 10 11 11 11 12 12 13 14 15 16 16 16 16 16 16 16 16 16 16 16 15 15 15 15 15 14 14 14 14 14 14
5 6 7 7 7 7 7 7 8 9 9 10 10 10 11 11 12 12 13 13 14 15 16 16 16 16 16 16 16 16 16 16 16 15 15 15 14 14 14 14 14 14 14 14
6 7 7 7 7 7 7 8 9 9 9 9 10 9 10 11 11 12 13 13 14 15 16 16 16 16 16 16 16 16 16 16 16 15 15 15 15 14 14 14 14 14 14 14
6 6 7 7 8 8 8 9 9 9 8 8 9 9 9 10 11 11 12 14 15 15 16 16 16 17 17 16 16 16 16 16 16 15 15 15 15 15 15 14 14 14 14 14
6 7 7 7 8 8 8 9 8 8 8 8 9 9 9 10 11 12 12 13 14 15 16 16 16 16 16 16 16 16 16 16 16 15 15 15 15 15 14 14 14 14 14 14
6 7 7 8 8 8 8 8 7 7 7 8 9 9 10 11 11 12 12 13 15 15 15 16 16 16 16 16 16 16 16 15 15 15 15 15 14 14 14 14 14 14 14 14
5 6 7 7 8 8 8 8 7 8 7 7 9 9 10 11 11 12 13 14 14 14 15 15 15 16 16 16 16 15 15 15 15 15 14 14 14 14 14 14 14 14 13 13
6 6 7 8 8 8 8 7 8 7 7 8 8 10 11 11 10 10 12 13 13 14 14 15 15 15 15 15 15 15 15 15 14 14 14 14 14 14 14 13 13 13 13 13
6 6 7 8 8 8 8 8 7 7 7 8 9 9 9 10 10 10 10 11 12 13 14 14 14 14 14 14 14 14 14 14 14 13 13 13 13 13 13 13 13 13 12 12
7 6 6 7 7 7 8 8 7 7 7 7 8 8 10 9 9 9 9 11 12 12 13 13 13 13 13 13 13 13 13 13 13 12 12 12 12 12 12 12 12 12 12 11
7 6 6 7 7 8 8 8 8 7 7 6 7 8 9 8 9 9 9 11 11 12 12 12 12 12 12 12 12 12 12 12 12 11 11 11 11 11 11 11 11 11 11 10
7 6 5 6 7 7 8 8 8 7 6 6 7 8 9 8 8 9 10 10 11 11 11 11 11 11 11 11 11 11 11 11 10 10 10 9 10 10 10 10 10 10 10 9
8 6 5 6 6 7 7 8 8 7 6 7 7 8 9 8 8 8 9 9 10 10 10 10 10 10 10 11 10 10 10 10 9 9 9 9 9 9 9 9 9 9 9 8
7 6 6 7 7 7 7 8 8 7 7 7 8 8 9 8 8 8 8 8 9 9 9 9 9 9 10 10 10 10 9 9 8 8 8 8 8 8 9 9 8 8 8 7
6 6 6 6 7 7 7 8 8 7 7 7 7 7 8 8 8 7 7 7 7 7 8 8 8 9 9 9 9 9 9 8 8 8 8 8 8 8 8 8 7 7 7 6
5 6 5 5 7 7 6 7 7 7 7 7 7 7 7 6 6 6 6 6 6 6 7 7 7 8 8 8 9 9 9 8 8 8 8 7 7 8 7 7 7 6 6 5
5 5 4 5 6 5 6 7 7 6 5 5 5 5 5 5 5 5 5 5 5 6 6 7 7 7 8 8 8 8 8 8 8 7 7 7 7 7 7 6 6 5 5 4
5 5 4 4 4 5 6 6 6 6 4 4 4 4 4 5 5 4 5 5 5 5 5 6 6 7 7 7 8 8 8 8 7 7 7 7 7 6 6 6 5 5 4 3
5 5 4 4 5 5 6 6 6 6 4 3 3 3 3 4 4 4 4 4 4 5 5 5 6 6 7 7 7 7 7 7 7 7 7 7 6 6 5 5 4 4 3 2
5 4 4 4 4 4 5 5 6 5 4 3 3 2 2 2 2 3 3 3 3 4 4 5 5 5 6 6 6 6 6 6 6 6 6 6 5 5 4 4 3 3 2 1
3 3 3 3 4 4 4 4 4 3 2 2 2 2 1 1 2 2 2 2 2 3 3 4 4 4 5 5 5 5 6 6 5 5 5 5 5 4 4 3 3 2 1 1
3 3 3 3 3 2 2 2 2 2 2 1 1 1 1 1 1 1 1 1 1 1 2 2 2 3 4 4 4 4 5 5 5 5 4 4 4 3 3 2 2 1 1 1
2 2 2 2 2 2 2 2 2 1 1 1 1 0 0 0 0 0 0 0 0 1 1 1 1 2 3 3 3 3 3 4 4 4 4 3 3 3 2 2 2 1 1 1
1 1 2 2 1 1 1 1 1 1 1 0 0 -0 -0 -1 -1 -1 -1 -1 -1 -0 -0 0 0 1 1 2 2 2 3 3 3 3 3 3 3 3 2 2 2 1 1 1
-0 0 1 1 1 0 1 1 0 0 -0 -0 -1 -1 -1 -1 -1 -1 -1 -1 -1 -1 -1 -1 -1 -0 0 1 1 1 2 2 2 2 2 2 2 2 2 1 1 1 1 0
Wind_Speed
1 2 5 7 7 5 4 5 5 4 3 5 7 5 5 5 5 7 7 8 9 10 9 7 8 8 8 9 10 11 11 11 9 6 6 6 5 5 4 5 8 9 9 9
1 3 5 4 5 6 5 6 4 1 2 4 4 5 5 7 9 9 10 10 10 10 8 8 8 8 9 10 10 11 11 11 10 8 6 4 4 4 4 4 6 8 8 8
3 3 4 5 6 6 6 8 7 5 3 2 4 3 6 7 8 10 10 11 11 11 11 10 10 10 9 9 10 10 11 10 10 9 5 4 4 3 3 3 3 4 7 7
1 2 4 5 6 6 5 7 7 6 6 2 4 3 6 8 9 13 14 13 12 12 11 10 11 10 10 10 9 9 9 9 9 10 9 9 7 6 6 5 4 4 6 6
1 0 2 4 4 4 4 6 7 7 5 2 2 2 6 5 10 14 15 14 13 12 11 11 12 12 10 9 8 7 8 7 7 8 9 9 7 5 4 4 6 5 4 5
1 1 1 1 1 3 4 8 8 5 3 2 5 5 5 6 12 11 12 12 12 10 9 9 9 8 7 5 5 6 7 6 6 7 8 9 9 8 8 7 7 5 4 3
3 2 2 1 3 4 6 7 4 2 2 4 5 5 7 8 9 12 11 10 8 6 6 7 7 7 7 7 7 7 7 6 5 7 7 8 9 10 10 9 8 7 4 3
1 2 2 1 2 4 3 4 5 5 5 2 4 6 6 5 2 3 5 5 4 4 4 5 6 7 7 7 7 7 7 6 6 6 6 6 8 7 6 7 7 6 5 4
3 0 2 1 0 5 4 2 3 4 3 2 3 4 4 3 4 4 5 4 4 3 4 4 4 5 7 7 7 6 6 5 5 5 5 5 6 7 7 7 6 5 5 4
3 3 1 2 2 1 4 4 4 4 4 3 2 2 3 3 2 4 5 5 4 3 3 3 2 3 4 5 4 5 5 5 4 5 5 5 5 6 7 7 7 7 6 5
2 3 1 2 1 0 1 2 4 3 3 4 3 4 3 5 4 5 4 5 5 4 3 2 1 1 2 3 4 4 5 5 6 6 6 7 6 6 7 6 6 7 6 6
2 4 2 1 3 1 1 1 4 4 1 2 3 3 6 0 3 5 5 4 4 4 3 2 1 1 1 3 4 5 5 6 6 6 7 7 7 7 6 6 6 6 6 6
3 4 3 3 4 2 1 1 3 4 4 3 3 3 5 6 6 5 5 4 4 4 4 3 2 1 2 3 4 4 5 6 6 7 8 7 7 7 7 6 6 6 6 6
3 3 4 6 4 3 2 2 4 4 3 3 4 3 2 4 5 4 4 4 4 4 4 4 3 3 3 3 4 4 5 6 7 8 8 8 7 7 6 6 6 6 6 6
4 3 1 1 1 2 3 3 5 5 6 6 4 3 2 1 2 2 3 4 5 5 5 4 4 4 4 3 4 5 5 6 7 8 8 8 7 7 7 7 6 6 6 6
3 3 2 2 2 1 1 2 4 4 4 5 3 2 1 2 4 5 5 5 5 5 6 6 5 5 5 5 5 5 6 7 7 9 8 8 8 7 7 7 7 6 5 5
2 3 2 1 2 3 3 4 4 3 1 4 5 4 0 2 4 4 4 5 5 6 6 7 7 6 6 6 6 7 7 7 8 9 8 8 9 8 8 7 7 6 6 5
4 4 3 1 2 2 5 3 2 5 4 3 3 2 2 1 3 5 5 5 6 7 8 8 7 8 7 6 6 6 5 8 9 9 9 9 9 9 8 7 7 6 5 5
3 5 3 2 2 3 3 2 1 3 2 5 3 3 4 2 2 1 5 6 5 6 7 7 7 8 8 7 5 4 5 7 9 9 10 10 10 10 9 8 8 6 5 5
4 4 3 2 2 5 3 3 3 4 1 3 3 4 5 4 0 3 7 8 8 8 7 7 8 7 7 7 4 3 5 7 9 10 9 9 10 10 10 9 7 5 5 5
2 2 3 3 3 5 3 5 2 3 3 2 2 3 3 2 3 6 9 8 8 8 8 8 7 7 7 6 3 3 4 7 7 6 7 8 9 9 9 8 6 6 6 6
5 4 4 4 4 5 2 3 2 2 2 2 2 3 3 4 6 7 8 8 9 9 9 8 7 8 7 5 3 4 5 5 4 6 7 8 8 8 7 8 7 7 7 7
3 4 4 4 3 0 3 4 3 3 2 1 2 4 4 6 7 8 8 8 8 9 9 8 7 8 7 6 4 5 5 3 4 6 7 7 8 8 8 9 9 8 8 7
1 0 2 1 1 2 3 4 3 3 1 2 2 4 5 6 8 9 9 9 9 9 9 8 8 8 8 7 6 5 5 4 5 7 7 7 8 8 8 8 8 8 8 8
3 2 2 2 2 2 1 1 1 2 2 3 4 4 5 7 8 8 9 9 9 9 9 9 8 9 9 8 7 6 4 4 5 6 7 8 8 8 8 8 8 9 9 9
3 4 5 4 4 4 3 2 1 1 3 4 5 6 6 6 8 9 8 8 8 9 9 9 9 9 10 9 8 7 5 4 6 6 7 7 7 7 7 7 7 11 11 14
Wind_Direction
165 163 192 191 189 190 176 168 178 190 177 160 182 192 208 207 212 228 244 250 244 237 234 220 207 196 186 184 181 183 180 181 175 173 174 174 180 175 169 169 176 177 174 172
147 217 211 190 183 185 191 178 185 193 172 155 185 221 219 218 216 221 228 241 244 241 239 222 206 198 192 189 188 188 187 182 182 184 178 172 164 163 165 155 158 168 165 164
200 219 181 170 165 173 193 186 180 164 140 109 145 231 230 229 228 235 237 235 238 230 225 215 203 202 197 195 193 193 190 184 182 175 157 133 113 105 133 159 158 154 151 147
248 246 182 174 182 177 185 185 169 151 136 166 162 208 241 219 225 229 234 235 235 233 223 212 202 200 201 203 196 191 188 184 180 172 171 169 173 182 185 174 164 147 141 139
292 232 169 188 198 174 171 154 145 139 127 118 166 180 266 216 225 227 226 227 230 229 219 211 204 202 203 196 189 186 178 179 179 179 180 179 182 177 152 144 148 146 135 136
251 254 226 229 199 163 117 100 88 76 95 183 196 181 253 218 218 220 219 219 220 220 214 211 206 194 191 177 170 169 168 174 175 177 181 184 179 166 157 161 164 159 147 136
11 355 340 324 85 82 102 114 115 119 156 222 194 193 245 242 227 211 205 210 213 212 203 199 192 185 180 175 175 172 168 172 172 172 177 182 178 173 173 171 170 161 155 150
70 351 331 12 107 135 144 137 152 159 175 228 175 213 257 280 282 174 166 173 171 169 171 175 183 185 185 184 178 175 174 173 172 174 175 172 166 166 168 163 159 158 156 151
147 53 333 316 98 125 137 175 163 119 122 122 224 258 318 26 48 88 110 118 139 149 148 154 162 175 183 187 190 187 179 173 172 169 159 156 155 153 151 146 139 140 140 140
147 117 342 322 52 49 160 149 105 116 142 164 224 246 236 232 161 104 105 113 115 110 108 117 158 189 194 191 186 178 178 178 169 161 158 148 142 140 140 139 139 138 135 133
136 119 36 38 74 182 59 101 107 113 133 144 172 263 268 230 199 142 116 108 109 107 103 98 88 154 167 169 177 181 181 171 166 159 146 136 134 129 126 128 133 133 131 136
145 113 92 313 292 257 219 155 137 135 149 139 147 279 324 353 130 123 112 89 74 74 65 67 74 90 154 186 192 189 184 176 168 153 141 137 133 128 128 133 136 134 135 136
123 110 92 6 338 337 281 200 142 120 109 131 144 265 351 54 65 73 87 76 57 48 40 33 31 351 240 224 211 199 188 178 162 149 143 141 142 142 143 143 141 138 137 135
107 105 154 183 222 204 213 203 155 128 145 172 199 208 357 54 57 45 52 59 49 37 30 15 348 310 278 246 224 208 198 179 164 155 153 156 160 157 151 147 144 144 144 143
85 110 146 226 233 174 201 204 179 173 175 174 193 190 229 118 68 50 46 48 44 28 13 354 331 310 293 272 245 219 203 185 169 163 166 169 161 152 146 146 146 145 148 150
72 108 80 3 5 74 343 262 198 197 192 195 183 230 291 78 80 59 44 39 26 3 348 337 327 319 302 274 254 231 211 194 176 175 177 166 158 155 155 153 151 150 150 150
84 110 103 293 345 38 302 267 213 182 190 189 206 214 183 81 78 70 49 34 7 342 335 332 320 303 292 278 253 235 219 193 183 183 177 169 164 163 164 160 159 162 163 162
128 112 121 130 74 221 258 323 131 123 53 34 92 72 46 99 131 108 70 33 360 340 332 323 316 308 298 285 269 242 211 191 188 185 180 175 170 169 165 165 171 170 165 169
140 136 131 143 189 264 290 352 68 129 69 8 64 45 15 344 126 126 30 9 342 323 314 306 301 296 295 292 279 244 211 193 190 192 188 181 175 172 171 177 178 172 166 170
89 108 130 152 189 232 247 313 326 108 133 7 54 40 10 21 52 280 344 341 334 328 321 316 315 308 304 300 286 235 218 202 205 201 191 179 174 175 180 180 173 166 166 175
120 117 158 183 226 258 283 313 20 163 226 85 50 29 13 357 260 294 318 323 322 319 316 318 319 317 309 306 291 252 234 224 218 193 177 175 177 178 176 170 165 164 166 170
170 169 186 176 207 248 337 45 123 164 79 65 21 357 332 304 301 308 313 315 319 320 321 323 322 318 316 313 295 271 257 244 198 178 178 179 176 174 170 168 171 172 175 183
180 184 189 192 206 90 53 97 84 81 76 13 333 324 320 313 311 312 311 311 313 315 317 319 317 315 315 313 295 277 275 239 192 183 185 181 175 174 171 176 180 182 188 196
265 110 140 149 167 130 101 97 74 59 40 326 313 313 315 307 309 312 312 314 316 316 315 315 313 311 311 312 303 280 272 233 199 195 190 181 179 180 180 184 187 193 197 202
208 165 155 188 154 115 145 124 37 8 359 335 318 305 304 305 306 307 309 309 312 314 315 314 309 305 304 308 304 289 271 230 213 205 196 189 189 187 192 197 202 203 207 206
198 177 179 209 194 188 224 226 248 310 305 304 307 304 301 297 298 303 302 302 304 308 312 313 311 307 305 304 300 291 269 234 218 215 206 200 195 195 197 200 211 218 216 222
Height
1478 1480 1479 1479 1479 1480 1480 1481 1483 1483 1481 1483 1486 1488 1488 1488 1491 1493 1494 1495 1496 1497 1499 1502 1504 1506 1508 1511 1513 1516 1518 1521 1524 1527 1529 1532 1535 1537 1540 1542 1544 1546 1548 1549
1480 1479 1476 1475 1476 1479 1480 1482 1484 1483 1481 1483 1487 1487 1487 1488 1489 1490 1491 1493 1493 1495 1497 1499 1501 1504 1506 1508 1510 1513 1515 1518 1521 1523 1526 1529 1532 1535 1537 1540 1541 1543 1545 1546
1477 1475 1473 1474 1476 1478 1479 1480 1482 1483 1483 1483 1487 1490 1487 1486 1487 1487 1488 1489 1490 1491 1493 1495 1498 1500 1503 1505 1507 1510 1512 1515 1518 1520 1523 1526 1529 1531 1534 1536 1538 1540 1541 1543
1474 1472 1472 1473 1474 1475 1477 1476 1477 1480 1486 1489 1489 1495 1488 1483 1484 1484 1484 1485 1486 1487 1489 1491 1494 1497 1499 1502 1505 1507 1510 1512 1514 1517 1519 1522 1524 1526 1529 1532 1534 1536 1538 1539
1474 1472 1471 1472 1471 1471 1472 1472 1476 1480 1486 1491 1491 1495 1489 1481 1482 1479 1478 1479 1481 1483 1485 1487 1490 1493 1496 1499 1502 1504 1507 1509 1511 1514 1516 1519 1521 1524 1527 1529 1531 1532 1534 1536
1473 1471 1471 1470 1469 1469 1471 1474 1480 1484 1488 1494 1490 1494 1489 1480 1474 1472 1471 1473 1476 1478 1481 1484 1487 1490 1493 1496 1499 1501 1504 1506 1508 1510 1513 1515 1518 1520 1522 1525 1527 1528 1530 1532
1475 1473 1471 1470 1470 1472 1474 1480 1488 1491 1495 1493 1487 1488 1482 1469 1465 1465 1466 1469 1471 1475 1478 1480 1483 1486 1489 1492 1495 1498 1500 1502 1505 1507 1509 1511 1514 1516 1518 1521 1523 1525 1526 1527
1478 1478 1473 1471 1471 1473 1476 1479 1487 1490 1494 1493 1485 1486 1475 1465 1463 1462 1464 1467 1470 1473 1475 1477 1480 1483 1487 1490 1492 1495 1497 1499 1501 1503 1505 1508 1510 1512 1514 1517 1519 1520 1522 1523
1476 1477 1473 1472 1472 1473 1477 1480 1479 1486 1489 1491 1487 1479 1471 1466 1466 1465 1466 1467 1469 1471 1474 1476 1479 1482 1484 1487 1490 1492 1494 1496 1498 1500 1501 1504 1506 1508 1510 1512 1514 1516 1518 1519
1473 1476 1474 1472 1472 1473 1474 1476 1482 1486 1489 1490 1485 1481 1479 1471 1470 1468 1468 1468 1469 1472 1474 1476 1478 1480 1483 1485 1487 1489 1491 1493 1494 1496 1497 1499 1502 1504 1506 1508 1510 1511 1513 1514
1471 1476 1477 1475 1475 1475 1474 1475 1479 1484 1486 1490 1491 1487 1473 1472 1470 1470 1469 1469 1470 1472 1473 1475 1477 1479 1481 1483 1485 1486 1488 1489 1490 1492 1493 1495 1497 1500 1502 1504 1506 1507 1508 1509
1471 1477 1480 1478 1475 1473 1473 1473 1477 1484 1487 1489 1491 1488 1471 1470 1470 1470 1471 1471 1472 1473 1474 1475 1477 1478 1480 1481 1482 1483 1484 1485 1486 1488 1489 1491 1494 1496 1498 1500 1502 1503 1504 1504
1470 1477 1485 1484 1482 1477 1474 1473 1474 1479 1486 1491 1491 1487 1474 1472 1472 1473 1473 1473 1474 1474 1475 1476 1476 1477 1478 1479 1479 1480 1481 1481 1482 1484 1486 1488 1490 1493 1495 1496 1498 1499 1499 1500
1468 1476 1483 1484 1479 1476 1475 1474 1474 1479 1487 1487 1485 1482 1477 1476 1476 1476 1476 1476 1476 1476 1476 1476 1476 1476 1476 1476 1476 1477 1477 1478 1479 1481 1483 1485 1487 1490 1491 1493 1494 1495 1495 1495
1470 1477 1477 1476 1473 1474 1473 1473 1474 1478 1480 1484 1480 1479 1478 1477 1478 1477 1477 1477 1476 1476 1476 1475 1475 1474 1474 1473 1473 1473 1474 1474 1476 1477 1479 1481 1484 1486 1488 1489 1490 1491 1491 1490
1472 1476 1477 1477 1474 1473 1474 1472 1473 1475 1476 1477 1478 1479 1477 1477 1478 1478 1478 1477 1477 1476 1475 1474 1473 1472 1471 1470 1470 1470 1470 1471 1472 1474 1476 1478 1480 1482 1484 1485 1486 1486 1486 1486
1475 1477 1481 1483 1477 1476 1479 1475 1473 1474 1475 1475 1477 1479 1478 1478 1478 1479 1479 1478 1477 1476 1474 1473 1471 1470 1468 1467 1466 1466 1466 1467 1468 1470 1472 1474 1476 1478 1480 1481 1482 1482 1482 1482
1476 1479 1485 1485 1482 1486 1479 1473 1472 1475 1478 1477 1477 1478 1478 1478 1478 1479 1478 1477 1476 1474 1472 1470 1469 1467 1465 1464 1463 1462 1462 1463 1464 1466 1468 1470 1472 1474 1475 1476 1477 1478 1478 1478
1474 1478 1484 1486 1487 1483 1477 1474 1474 1476 1481 1480 1479 1479 1478 1477 1477 1477 1477 1476 1475 1473 1470 1468 1466 1464 1462 1460 1459 1458 1458 1459 1460 1461 1463 1465 1467 1469 1470 1472 1473 1473 1473 1473
1475 1477 1483 1485 1484 1483 1477 1474 1473 1476 1481 1482 1480 1480 1479 1477 1479 1478 1476 1473 1471 1470 1467 1465 1463 1460 1458 1456 1455 1454 1454 1454 1455 1457 1459 1461 1463 1464 1466 1467 1468 1468 1469 1469
1479 1480 1483 1484 1484 1480 1477 1474 1474 1482 1481 1482 1480 1480 1479 1479 1479 1477 1474 1471 1469 1467 1464 1462 1459 1456 1454 1452 1451 1450 1450 1450 1451 1453 1455 1456 1458 1459 1461 1462 1463 1464 1464 1465
1480 1483 1484 1485 1484 1484 1477 1475 1478 1480 1481 1481 1480 1480 1479 1478 1476 1473 1471 1469 1466 1463 1460 1458 1455 1453 1451 1449 1448 1446 1446 1447 1447 1448 1450 1451 1452 1454 1455 1456 1458 1459 1459 1460
1479 1480 1480 1481 1482 1480 1478 1478 1479 1479 1480 1480 1479 1478 1477 1475 1473 1471 1468 1465 1463 1460 1457 1454 1452 1449 1447 1446 1445 1443 1443 1443 1443 1444 1445 1446 1447 1448 1450 1451 1452 1453 1454 1455
1478 1477 1478 1479 1479 1479 1479 1479 1479 1479 1479 1479 1478 1476 1475 1473 1470 1468 1465 1462 1459 1457 1454 1451 1448 1446 1443 1442 1441 1440 1439 1439 1439 1439 1440 1441 1442 1443 1445 1446 1447 1448 1450 1451
1476 1477 1477 1478 1479 1479 1479 1479 1479 1478 1477 1476 1475 1474 1472 1469 1467 1464 1461 1459 1456 1453 1450 1447 1445 1442 1440 1438 1436 1436 1435 1434 1434 1434 1435 1436 1437 1438 1440 1441 1442 1443 1445 1447
1475 1476 1477 1477 1476 1477 1477 1477 1477 1476 1475 1473 1472 1469 1468 1466 1463 1460 1458 1455 1452 1449 1446 1443 1440 1438 1435 1433 1432 1431 1430 1429 1429 1429 1430 1431 1432 1433 1434 1436 1437 1438 1440 1442